Probability
0 0 0 0 0 0 0 0 0 0 0 0 0 0 0 0 0 0 0 0 0 3 0 0 0 0 0 3 3 6 6 6 6 6 6 6 3 6 6 6 6 3 3 3
0 0 0 0 0 0 0 0 0 0 0 0 0 0 0 0 0 0 0 0 0 3 3 3 3 3 3 3 3 6 10 6 6 10 10 10 3 3 6 3 6 3 3 0
0 0 0 0 0 0 0 0 0 0 0 0 0 0 0 0 0 0 0 0 0 3 3 6 3 3 3 3 3 3 6 6 6 13 13 10 6 3 3 6 6 3 0 0
0 0 0 0 0 0 0 0 0 0 0 0 0 0 0 0 0 0 0 0 0 3 3 3 6 3 3 3 3 3 10 10 10 10 13 13 10 3 3 3 6 6 0 0
0 0 0 0 0 0 0 0 0 0 0 0 0 0 0 0 0 0 0 0 0 0 3 3 6 6 3 3 3 6 10 10 10 10 10 13 10 3 3 6 6 3 0 0
0 0 0 0 0 0 0 0 0 0 0 0 0 0 0 0 0 0 0 0 0 0 3 6 10 6 6 3 3 6 10 10 10 10 10 10 6 3 3 3 0 0 0 0
0 0 0 0 0 0 0 0 0 0 0 0 0 0 0 0 0 0 0 0 0 0 3 6 10 10 6 6 6 3 10 10 10 10 10 10 10 3 3 0 0 0 0 0
0 0 0 0 0 0 0 0 0 0 0 0 0 0 0 0 0 0 0 0 0 0 3 6 6 10 10 6 10 6 6 3 6 6 10 10 10 3 0 0 0 0 0 0
0 0 0 0 0 0 0 0 0 0 0 0 0 0 0 0 0 0 0 0 0 0 3 6 6 10 10 6 3 6 10 6 3 6 6 6 3 3 0 0 0 0 0 0
0 0 0 0 0 0 0 0 0 0 0 0 0 0 0 0 0 0 0 0 0 0 3 6 6 10 10 6 3 3 10 3 3 6 6 3 3 3 0 0 0 0 0 0
0 0 0 0 0 0 0 0 0 0 0 0 0 0 0 0 0 0 0 0 0 0 3 3 10 10 10 6 6 3 3 3 3 0 0 3 3 3 0 0 0 0 0 0
0 0 0 0 0 0 0 0 0 0 0 0 0 0 0 0 0 0 0 0 0 0 6 10 13 10 6 6 6 6 3 3 0 0 0 3 3 0 3 3 0 0 0 0
0 0 0 0 0 0 0 0 0 0 0 0 0 0 0 0 0 0 0 0 0 0 3 10 10 10 6 6 6 6 6 3 3 3 3 3 3 3 3 3 3 0 0 0
0 0 0 0 0 0 0 0 0 0 0 0 0 0 0 0 0 0 3 3 0 0 0 3 6 3 3 3 3 3 6 6 3 3 3 3 3 3 3 3 3 0 0 0
0 0 0 0 0 0 0 0 0 0 0 0 0 0 0 0 0 0 6 6 3 3 0 0 0 3 3 3 3 3 3 3 3 3 3 3 3 3 3 3 3 3 3 0
0 0 0 0 0 0 0 0 0 0 0 0 0 0 0 0 0 0 0 6 3 3 0 0 0 0 3 3 6 3 3 3 3 3 3 3 3 3 3 3 3 0 0 0
0 0 0 0 0 0 0 0 0 0 0 0 0 0 0 0 0 0 0 3 0 0 0 0 0 0 0 3 6 6 3 3 3 3 3 3 3 3 3 0 0 0 0 0
0 0 0 0 0 0 0 0 0 0 0 0 0 0 0 0 0 0 0 0 0 0 0 0 0 0 0 0 6 3 3 3 3 3 3 3 3 3 0 0 0 0 0 0
0 0 0 0 0 0 0 0 0 0 0 0 0 0 0 0 0 0 0 0 0 0 0 0 0 0 0 0 0 3 3 3 3 3 3 3 3 0 0 0 0 0 3 3
0 0 0 0 0 0 0 0 0 0 0 0 0 0 0 0 0 0 0 0 0 0 0 0 0 0 0 0 0 3 3 3 3 3 3 3 0 0 0 0 0 3 3 3
0 0 0 0 0 0 0 0 0 0 0 0 0 0 0 0 0 0 0 0 0 0 0 0 0 0 0 0 0 0 3 3 3 3 3 3 0 0 0 0 0 3 0 0
0 0 0 0 0 0 0 0 0 0 0 0 0 0 0 0 0 0 0 0 0 0 0 0 0 0 0 0 0 0 3 3 3 3 3 0 0 0 0 0 0 0 0 0
0 0 0 0 0 0 0 0 0 0 0 0 0 0 0 0 0 0 0 0 0 0 0 0 0 0 0 0 0 0 3 3 3 3 0 0 0 0 0 0 0 0 0 0
0 0 0 0 0 0 0 0 0 0 0 0 0 0 0 0 0 0 0 0 0 0 0 0 0 0 0 0 0 0 3 3 3 3 0 0 0 0 0 0 0 0 0 0
0 0 0 0 0 0 0 0 0 0 0 0 0 0 0 0 0 0 0 0 0 0 0 0 0 0 0 0 0 0 0 3 3 0 0 0 0 0 0 0 0 0 0 0
0 0 0 0 0 0 0 0 0 0 0 0 0 0 0 0 0 0 0 0 0 0 0 0 0 0 0 0 0 0 0 3 3 0 0 0 0 0 0 0 0 0 0 0
Height
5832 5834 5834 5835 5835 5836 5837 5837 5837 5837 5837 5837 5837 5837 5837 5837 5837 5838 5838 5838 5838 5839 5839 5839 5839 5839 5840 5840 5840 5840 5840 5840 5841 5841 5841 5841 5841 5840 5840 5840 5840 5840 5840 5840
5830 5831 5832 5833 5833 5834 5835 5835 5835 5835 5835 5835 5835 5835 5835 5835 5836 5836 5836 5836 5836 5836 5837 5837 5837 5837 5838 5838 5838 5838 5838 5838 5838 5839 5839 5839 5838 5838 5838 5838 5838 5838 5838 5838
5828 5830 5830 5831 5831 5832 5833 5833 5833 5834 5833 5833 5833 5834 5833 5833 5834 5834 5834 5834 5834 5834 5835 5835 5835 5835 5836 5836 5836 5836 5836 5836 5836 5836 5836 5836 5836 5836 5836 5835 5835 5835 5835 5835
5826 5827 5828 5829 5829 5830 5830 5831 5831 5831 5832 5831 5832 5832 5832 5831 5832 5832 5832 5832 5832 5832 5832 5832 5833 5833 5833 5833 5833 5834 5833 5833 5834 5834 5834 5833 5833 5833 5833 5832 5832 5832 5832 5832
5824 5825 5826 5826 5827 5828 5828 5829 5829 5829 5829 5830 5830 5830 5830 5829 5829 5829 5830 5830 5830 5830 5830 5830 5830 5830 5830 5830 5830 5831 5831 5831 5831 5831 5830 5830 5830 5829 5829 5829 5829 5829 5829 5829
5821 5822 5823 5824 5825 5825 5826 5827 5827 5827 5827 5828 5828 5828 5827 5826 5827 5826 5826 5827 5827 5827 5827 5827 5827 5827 5827 5827 5827 5827 5828 5828 5827 5827 5827 5826 5826 5826 5825 5825 5825 5825 5824 5824
5819 5820 5820 5821 5822 5823 5824 5825 5825 5825 5825 5826 5826 5825 5825 5824 5824 5824 5824 5824 5824 5823 5823 5823 5823 5823 5824 5824 5824 5824 5824 5824 5824 5823 5822 5822 5822 5822 5821 5821 5821 5820 5820 5820
5815 5817 5818 5818 5820 5820 5821 5822 5823 5823 5823 5823 5823 5822 5823 5822 5822 5821 5821 5821 5821 5820 5820 5820 5820 5820 5820 5820 5820 5820 5820 5819 5819 5819 5819 5818 5818 5818 5817 5817 5816 5816 5816 5816
5812 5813 5814 5815 5816 5817 5818 5818 5819 5820 5819 5820 5821 5820 5819 5818 5818 5818 5818 5817 5817 5817 5817 5816 5816 5816 5816 5816 5815 5815 5815 5815 5815 5815 5814 5814 5813 5813 5812 5812 5812 5811 5811 5811
5809 5810 5810 5811 5812 5813 5814 5815 5816 5816 5816 5816 5818 5816 5815 5815 5815 5814 5814 5813 5813 5813 5813 5812 5812 5812 5812 5811 5811 5811 5810 5810 5810 5810 5810 5809 5809 5808 5807 5807 5807 5806 5806 5806
5805 5806 5807 5807 5808 5809 5810 5811 5811 5812 5813 5813 5813 5815 5812 5812 5811 5810 5809 5809 5809 5808 5808 5808 5808 5807 5807 5807 5806 5806 5805 5805 5805 5805 5805 5804 5804 5803 5802 5802 5801 5801 5801 5800
5801 5801 5802 5803 5804 5805 5805 5806 5807 5808 5808 5808 5808 5811 5808 5807 5807 5806 5805 5804 5804 5803 5803 5803 5802 5802 5802 5801 5801 5800 5800 5800 5800 5799 5799 5799 5798 5798 5797 5796 5796 5795 5795 5795
5796 5797 5798 5798 5800 5801 5801 5801 5802 5803 5804 5804 5804 5806 5803 5802 5801 5801 5800 5799 5798 5798 5797 5797 5797 5796 5796 5796 5795 5795 5794 5794 5794 5794 5793 5793 5792 5792 5791 5790 5790 5790 5789 5789
5790 5791 5793 5794 5794 5794 5795 5796 5797 5798 5798 5799 5800 5799 5798 5796 5796 5795 5795 5794 5793 5792 5792 5791 5790 5790 5789 5789 5789 5788 5788 5788 5788 5787 5787 5786 5786 5785 5785 5784 5783 5783 5783 5783
5785 5786 5787 5788 5788 5788 5789 5790 5791 5792 5792 5793 5794 5793 5792 5791 5790 5789 5788 5787 5787 5786 5786 5785 5784 5783 5783 5782 5782 5782 5782 5781 5781 5781 5780 5780 5780 5779 5778 5777 5777 5776 5776 5776
5778 5780 5781 5782 5782 5783 5783 5785 5785 5786 5786 5786 5787 5787 5786 5785 5784 5783 5782 5781 5780 5780 5779 5778 5778 5777 5776 5776 5775 5775 5775 5774 5774 5774 5774 5773 5773 5772 5772 5771 5770 5770 5769 5769
5773 5774 5774 5775 5776 5775 5777 5779 5779 5780 5780 5780 5780 5781 5780 5778 5778 5776 5776 5775 5774 5773 5772 5772 5771 5770 5769 5769 5768 5768 5767 5767 5767 5767 5766 5766 5766 5766 5765 5764 5763 5763 5762 5762
5767 5767 5768 5768 5770 5769 5773 5772 5772 5772 5773 5773 5773 5773 5772 5771 5770 5770 5769 5768 5767 5766 5766 5765 5764 5763 5762 5762 5761 5761 5760 5760 5759 5759 5759 5759 5758 5758 5758 5757 5756 5756 5755 5755
5760 5761 5761 5762 5762 5762 5765 5766 5765 5765 5765 5766 5765 5765 5764 5763 5763 5762 5761 5761 5760 5759 5758 5758 5757 5756 5755 5754 5754 5753 5753 5752 5752 5751 5751 5751 5751 5751 5751 5750 5749 5749 5748 5748
5754 5754 5755 5755 5755 5755 5759 5758 5757 5758 5758 5758 5757 5757 5756 5756 5755 5755 5754 5753 5752 5751 5751 5750 5749 5748 5748 5747 5746 5746 5745 5744 5744 5744 5744 5743 5743 5743 5743 5742 5742 5741 5741 5740
5747 5747 5748 5748 5747 5748 5750 5750 5750 5751 5751 5750 5749 5749 5749 5748 5747 5746 5745 5745 5745 5744 5743 5742 5741 5741 5740 5739 5739 5738 5737 5737 5736 5736 5736 5736 5736 5735 5735 5735 5734 5734 5733 5733
5739 5740 5740 5740 5740 5743 5742 5742 5743 5742 5741 5741 5741 5741 5741 5740 5739 5738 5737 5737 5736 5735 5735 5734 5733 5733 5732 5731 5731 5730 5730 5729 5729 5728 5728 5728 5728 5728 5728 5727 5726 5726 5726 5725
5732 5733 5733 5734 5735 5734 5734 5734 5734 5734 5733 5733 5733 5732 5732 5731 5731 5730 5729 5728 5728 5727 5727 5726 5725 5725 5724 5723 5723 5722 5722 5721 5721 5721 5721 5721 5721 5720 5720 5720 5719 5718 5718 5718
5724 5724 5725 5725 5726 5726 5725 5725 5725 5725 5725 5725 5724 5724 5723 5723 5722 5722 5721 5720 5719 5719 5718 5717 5717 5717 5716 5715 5715 5714 5714 5713 5713 5713 5713 5713 5713 5713 5712 5712 5711 5711 5711 5710
5716 5716 5716 5717 5717 5716 5717 5717 5717 5717 5716 5716 5716 5715 5714 5714 5714 5713 5712 5712 5711 5710 5709 5709 5708 5708 5708 5707 5707 5706 5705 5705 5705 5705 5705 5705 5705 5705 5704 5704 5704 5703 5703 5702
5707 5707 5707 5708 5708 5708 5708 5708 5708 5708 5707 5707 5707 5706 5705 5705 5704 5704 5703 5703 5702 5701 5701 5700 5700 5700 5699 5699 5699 5698 5697 5697 5697 5697 5697 5697 5697 5696 5696 5695 5695 5695 5694 5693
Wind_Speed
8 8 7 7 7 7 7 8 9 9 9 9 9 10 10 10 9 9 10 10 10 10 10 9 9 8 8 9 9 9 8 8 9 9 9 9 9 9 10 10 10 10 10 10
9 8 8 7 8 8 9 10 10 9 10 10 9 10 10 10 10 10 10 10 10 11 11 10 10 9 9 10 10 9 9 9 9 9 9 9 10 10 10 11 11 10 10 10
9 9 8 8 8 8 10 10 10 10 9 10 10 10 10 10 10 11 11 11 11 11 12 11 11 10 11 11 11 11 10 10 10 10 11 11 11 11 11 12 12 12 12 12
10 10 9 9 9 9 10 10 10 10 9 9 9 10 10 11 12 12 11 12 12 11 12 12 12 12 12 12 12 12 11 11 11 12 12 12 13 13 13 13 13 13 14 14
10 10 10 10 10 10 10 10 10 10 9 10 10 11 12 12 12 12 11 11 12 12 13 13 12 12 12 12 13 13 12 12 13 13 14 14 14 15 15 14 15 15 15 15
11 11 11 11 11 11 10 10 10 10 10 10 11 12 13 13 13 13 12 12 13 13 14 13 13 13 14 13 14 14 14 14 14 15 15 16 16 16 16 16 16 16 16 16
12 12 12 12 12 12 11 10 10 9 9 10 12 14 14 14 14 14 14 14 14 14 14 14 14 14 15 15 15 15 15 15 16 16 16 16 17 17 17 17 17 16 16 16
13 14 14 14 13 13 13 12 12 11 10 12 13 15 16 16 16 16 16 15 15 16 15 15 15 16 16 16 16 16 16 16 16 16 16 17 18 18 18 18 18 18 18 17
13 14 15 15 15 15 14 13 13 13 12 12 13 15 16 16 17 17 16 16 16 16 16 16 16 17 18 18 18 17 17 17 17 18 18 18 18 19 19 19 19 19 18 18
16 16 16 16 16 16 15 15 14 15 14 13 13 16 17 16 17 18 18 18 17 17 17 17 17 18 18 19 19 19 19 19 19 19 19 20 19 19 20 20 20 19 19 20
16 16 16 17 16 16 17 17 17 17 16 15 16 17 18 18 18 19 20 20 19 19 18 18 18 18 19 20 20 20 20 20 20 20 20 20 20 20 20 20 21 20 20 21
18 18 17 17 17 16 17 18 18 18 18 18 18 20 20 19 18 19 20 21 20 21 20 20 19 19 20 20 21 21 20 20 20 20 20 21 20 20 21 21 22 22 21 21
20 19 18 17 19 18 18 19 19 19 20 19 20 22 22 21 21 21 22 22 22 22 22 21 21 21 21 22 22 22 22 22 22 22 22 22 22 22 22 22 22 22 22 22
22 21 20 19 20 20 20 21 20 21 22 21 21 23 23 21 21 23 23 24 24 23 23 22 22 22 23 23 22 22 23 23 23 23 23 23 23 23 23 23 23 23 23 23
22 22 22 22 22 22 22 22 22 23 23 23 22 24 24 22 23 24 25 25 25 24 23 23 23 23 23 24 23 23 24 24 24 24 24 24 24 24 25 24 25 24 24 24
23 23 23 22 22 23 23 23 24 24 24 24 24 25 25 26 26 25 25 25 25 25 24 24 23 23 24 24 24 24 24 24 24 24 24 25 25 24 25 25 24 25 25 25
22 23 23 23 23 25 25 23 23 24 25 25 26 26 27 28 28 27 26 26 26 25 25 25 24 24 24 24 24 23 23 24 24 25 25 25 25 25 24 24 24 25 24 24
23 23 23 24 24 26 24 22 23 25 26 27 27 28 28 29 28 28 28 27 26 26 26 26 26 26 25 25 25 24 24 24 25 25 25 25 25 25 25 25 26 25 26 26
24 24 25 25 26 27 25 24 24 26 27 27 27 28 29 29 29 29 29 28 27 27 27 27 27 26 25 25 25 25 25 25 25 26 26 26 26 26 26 26 26 27 27 26
25 25 25 25 26 28 26 25 25 26 28 27 28 29 29 29 29 30 29 28 28 28 28 28 27 27 26 26 26 25 26 26 26 26 26 26 26 27 27 27 27 27 27 26
25 26 26 26 27 28 26 25 25 26 28 28 28 28 28 29 29 30 29 28 28 28 28 27 27 26 27 27 27 27 27 26 26 26 26 26 27 27 27 27 27 27 27 26
26 26 27 27 28 28 28 27 28 28 28 28 28 29 29 28 28 29 29 29 29 29 28 28 27 27 27 27 27 27 27 27 27 26 26 26 27 27 27 27 27 27 26 26
27 27 27 28 29 29 28 29 29 30 30 29 29 29 28 29 29 28 28 29 29 29 29 28 28 28 28 27 27 27 27 27 27 26 26 26 26 26 26 26 27 26 26 26
28 28 29 29 30 30 30 31 31 31 32 31 30 30 30 29 29 29 29 29 29 29 29 29 28 28 28 28 27 27 27 28 27 27 27 27 26 26 27 27 27 27 28 28
29 30 30 30 30 30 30 32 33 32 31 30 30 31 31 30 30 30 30 29 29 29 29 29 29 29 28 28 28 28 28 28 28 28 28 28 28 28 28 28 27 28 29 29
31 31 31 31 31 32 32 32 32 32 32 32 31 31 31 31 30 30 30 30 29 29 29 30 30 30 29 28 28 28 29 29 29 29 29 29 28 28 28 28 29 29 30 30
Wind_Direction
249 253 252 250 246 253 258 262 272 273 270 272 272 272 275 278 278 274 272 274 271 271 272 274 274 276 277 278 281 282 281 283 283 284 284 286 287 287 286 286 287 283 280 281
248 251 251 253 254 251 252 261 270 273 277 277 275 277 275 274 275 276 273 274 271 272 276 274 271 276 278 279 280 282 280 280 282 282 282 284 287 288 288 286 285 282 281 281
250 253 251 254 254 253 254 260 267 271 274 277 278 280 280 281 280 282 279 277 279 277 279 278 273 276 278 279 279 279 279 280 280 281 282 283 286 286 285 285 283 282 281 281
249 254 253 258 258 258 256 261 264 267 272 277 279 281 279 281 282 282 280 277 278 279 279 277 276 274 276 279 279 279 282 282 282 282 283 283 284 284 284 283 282 280 280 279
253 253 251 254 256 256 259 262 264 266 271 273 276 281 282 284 282 279 278 278 277 279 279 278 275 273 274 278 279 278 280 282 283 284 285 284 284 284 284 284 284 282 281 280
256 257 256 254 254 256 259 261 263 264 269 272 278 281 281 283 283 281 278 277 279 280 279 275 274 275 274 275 275 276 277 280 281 283 285 285 285 285 284 284 284 284 283 280
256 254 255 256 254 253 255 258 261 265 274 281 284 282 278 283 285 285 282 279 280 280 279 276 275 275 274 274 274 276 278 279 279 279 282 284 284 285 285 285 284 284 284 283
258 258 257 258 257 255 253 252 259 262 266 271 275 276 280 284 284 284 283 282 282 282 280 276 275 274 273 274 277 280 278 278 277 277 280 283 284 284 285 284 284 283 282 281
255 257 262 260 259 256 253 251 259 262 262 264 275 280 280 283 282 283 282 282 282 282 281 276 273 272 273 276 279 282 279 277 275 276 279 282 283 285 284 284 284 283 281 279
251 254 259 262 259 257 255 253 255 258 258 257 264 276 280 287 286 283 280 279 280 281 280 276 273 272 273 276 279 280 278 276 276 275 278 283 283 284 284 283 283 282 280 278
254 255 259 260 258 259 257 255 254 256 259 261 263 268 278 285 285 284 283 280 280 281 280 277 274 273 275 277 278 277 276 275 277 278 279 282 284 283 281 281 282 280 279 278
256 258 261 264 261 259 259 258 257 258 260 261 266 271 278 282 283 283 284 282 281 280 279 277 276 276 276 277 278 276 275 274 276 280 281 281 283 283 282 280 280 280 278 277
257 257 260 260 261 259 260 258 257 259 262 263 265 272 279 281 283 285 285 284 282 281 282 281 278 277 276 277 277 275 275 275 277 279 280 279 281 281 280 280 279 279 279 278
257 257 256 255 260 263 262 262 261 261 263 266 266 269 274 278 282 283 282 282 282 281 281 281 279 277 276 276 276 274 274 274 275 277 278 280 280 280 279 278 278 278 278 278
258 258 257 256 256 258 262 264 262 263 265 267 267 269 272 277 280 281 281 281 281 281 281 280 280 279 277 276 275 274 273 273 275 276 277 278 280 280 280 278 277 276 277 277
259 260 259 259 260 260 259 262 263 265 266 268 268 268 270 274 278 279 279 280 281 282 282 281 281 281 278 277 277 275 274 274 275 276 277 278 279 280 281 281 278 277 277 278
259 260 260 260 262 263 260 263 266 268 269 270 271 272 272 274 276 277 279 280 281 281 281 281 281 282 279 278 278 277 275 275 275 276 275 277 278 278 279 279 280 278 278 279
261 262 262 261 261 263 267 268 267 268 270 271 271 272 273 274 276 277 277 278 279 279 281 282 282 282 280 279 278 278 276 275 275 275 275 276 276 277 278 280 280 280 279 279
262 262 263 264 263 264 266 268 268 269 270 272 272 272 273 274 275 275 275 276 278 278 279 281 281 280 280 281 280 279 277 276 276 275 274 275 275 276 278 281 282 281 280 279
262 263 265 265 265 266 269 268 268 270 272 273 273 274 274 275 275 275 276 276 276 277 279 280 279 278 279 280 280 279 279 278 276 274 275 275 276 277 277 280 282 280 279 278
262 263 265 266 266 269 271 269 269 270 274 275 276 276 277 276 276 277 277 276 277 278 278 279 279 278 279 279 279 278 278 279 277 275 274 275 276 278 278 280 281 280 278 279
261 263 265 265 267 270 270 269 269 271 273 275 277 278 278 277 276 276 276 276 277 277 278 278 278 279 280 279 278 278 278 278 276 275 274 276 277 278 279 279 280 280 279 279
262 264 265 265 268 270 271 271 270 271 272 274 276 277 277 277 276 277 277 277 277 278 278 277 277 277 278 279 278 278 277 276 275 274 273 274 276 277 278 280 279 278 277 278
263 264 264 264 267 269 270 271 271 273 273 274 275 276 277 277 277 277 277 277 276 276 276 277 276 277 278 278 278 278 276 275 274 275 274 273 275 277 278 278 278 277 277 279
263 264 264 264 266 268 269 270 272 273 273 274 275 276 276 276 275 275 276 277 276 276 275 274 274 276 276 276 277 276 276 275 275 276 275 274 275 277 277 277 278 278 277 280
263 264 265 265 266 269 271 272 273 273 273 274 275 277 276 276 275 274 275 276 276 276 275 275 274 274 273 274 276 275 276 275 276 277 276 276 276 275 276 277 277 279 279 280